Time,TemperatureF,DewpointF,PressureIn,WindDirection,WindDirectionDegrees,WindSpeedMPH,WindSpeedGustMPH,Humidity,HourlyPrecipIn,Conditions,Clouds,dailyrainin,SoftwareType,DateUTC
2013-01-15 00:04:00,63.3,61.0,30.16,South,175,0.0,5.0,92,0.00,,,0.01,weatherlink.com 1.10,2013-01-15 05:04:00,
2013-01-15 00:19:00,63.6,61.0,30.16,South,175,3.0,7.0,92,0.00,,,0.01,weatherlink.com 1.10,2013-01-15 05:19:00,
2013-01-15 00:34:00,62.9,61.0,30.16,South,180,0.0,0.0,92,0.00,,,0.00,weatherlink.com 1.10,2013-01-15 05:34:00,
2013-01-15 00:49:00,63.1,61.0,30.16,South,180,0.0,0.0,93,0.00,,,0.00,weatherlink.com 1.10,2013-01-15 05:49:00,
2013-01-15 01:04:00,62.0,60.0,30.16,South,180,0.0,0.0,93,0.00,,,0.00,weatherlink.com 1.10,2013-01-15 06:04:00,
2013-01-15 01:19:00,62.3,60.0,30.16,South,180,0.0,0.0,93,0.00,,,0.00,weatherlink.com 1.10,2013-01-15 06:19:00,
2013-01-15 01:34:00,62.3,61.0,30.16,South,180,0.0,0.0,94,0.00,,,0.00,weatherlink.com 1.10,2013-01-15 06:34:00,
2013-01-15 01:49:00,62.3,61.0,30.16,South,180,0.0,0.0,94,0.00,,,0.00,weatherlink.com 1.10,2013-01-15 06:49:00,
2013-01-15 02:04:00,62.7,61.0,30.16,South,180,0.0,0.0,95,0.00,,,0.00,weatherlink.com 1.10,2013-01-15 07:04:00,
2013-01-15 02:19:00,64.1,63.0,30.16,South,175,0.0,4.0,95,0.00,,,0.00,weatherlink.com 1.10,2013-01-15 07:19:00,
2013-01-15 02:34:00,64.0,63.0,30.16,South,173,0.0,6.0,95,0.00,,,0.00,weatherlink.com 1.10,2013-01-15 07:34:00,
2013-01-15 02:49:00,63.9,63.0,30.15,South,176,0.0,7.0,95,0.00,,,0.00,weatherlink.com 1.10,2013-01-15 07:49:00,
2013-01-15 03:04:00,64.0,63.0,30.15,South,171,6.0,7.0,95,0.00,,,0.00,weatherlink.com 1.10,2013-01-15 08:04:00,
2013-01-15 03:19:00,63.9,63.0,30.14,South,179,3.0,8.0,95,0.00,,,0.00,weatherlink.com 1.10,2013-01-15 08:19:00,
2013-01-15 03:34:00,63.9,63.0,30.14,South,173,0.0,8.0,96,0.00,,,0.00,weatherlink.com 1.10,2013-01-15 08:34:00,
2013-01-15 03:49:00,63.6,63.0,30.14,South,173,5.0,6.0,96,0.00,,,0.00,weatherlink.com 1.10,2013-01-15 08:49:00,
2013-01-15 04:04:00,63.4,62.0,30.13,South,171,4.0,6.0,95,0.00,,,0.00,weatherlink.com 1.10,2013-01-15 09:04:00,
2013-01-15 04:19:00,63.5,62.0,30.13,SSE,168,0.0,8.0,95,0.00,,,0.00,weatherlink.com 1.10,2013-01-15 09:19:00,
2013-01-15 04:34:00,63.5,62.0,30.13,South,172,5.0,7.0,94,0.00,,,0.00,weatherlink.com 1.10,2013-01-15 09:34:00,
2013-01-15 04:49:00,63.5,62.0,30.12,South,174,5.0,9.0,94,0.00,,,0.00,weatherlink.com 1.10,2013-01-15 09:49:00,
2013-01-15 05:04:00,64.1,62.0,30.12,South,180,7.0,11.0,92,0.00,,,0.00,weatherlink.com 1.10,2013-01-15 10:04:00,
2013-01-15 05:19:00,64.1,61.0,30.12,South,180,7.0,9.0,90,0.00,,,0.00,weatherlink.com 1.10,2013-01-15 10:19:00,
2013-01-15 05:35:00,64.3,61.0,30.11,South,188,5.0,9.0,90,0.00,,,0.00,weatherlink.com 1.10,2013-01-15 10:35:00,
2013-01-15 05:50:00,64.3,61.0,30.12,South,185,8.0,9.0,90,0.00,,,0.00,weatherlink.com 1.10,2013-01-15 10:50:00,
2013-01-15 06:05:00,64.3,61.0,30.12,South,177,0.0,7.0,89,0.00,,,0.00,weatherlink.com 1.10,2013-01-15 11:05:00,
2013-01-15 06:20:00,64.1,61.0,30.12,South,176,0.0,5.0,90,0.00,,,0.00,weatherlink.com 1.10,2013-01-15 11:20:00,
2013-01-15 06:35:00,64.0,61.0,30.12,South,184,3.0,7.0,90,0.00,,,0.00,weatherlink.com 1.10,2013-01-15 11:35:00,
2013-01-15 06:50:00,64.2,61.0,30.12,South,178,3.0,8.0,89,0.00,,,0.00,weatherlink.com 1.10,2013-01-15 11:50:00,
2013-01-15 07:05:00,64.0,61.0,30.12,South,180,5.0,5.0,90,0.00,,,0.00,weatherlink.com 1.10,2013-01-15 12:05:00,
2013-01-15 07:20:00,63.6,61.0,30.13,South,180,0.0,3.0,90,0.00,,,0.00,weatherlink.com 1.10,2013-01-15 12:20:00,
2013-01-15 07:35:00,63.1,60.0,30.14,South,180,0.0,0.0,90,0.00,,,0.00,weatherlink.com 1.10,2013-01-15 12:35:00,
2013-01-15 07:50:00,62.5,60.0,30.14,South,180,0.0,0.0,91,0.00,,,0.00,weatherlink.com 1.10,2013-01-15 12:50:00,
2013-01-15 08:05:00,62.1,60.0,30.14,South,176,0.0,5.0,91,0.00,,,0.00,weatherlink.com 1.10,2013-01-15 13:05:00,
2013-01-15 08:20:00,62.5,60.0,30.15,South,176,0.0,5.0,91,0.00,,,0.00,weatherlink.com 1.10,2013-01-15 13:20:00,
2013-01-15 08:35:00,63.1,61.0,30.16,South,179,2.0,6.0,91,0.00,,,0.00,weatherlink.com 1.10,2013-01-15 13:35:00,
2013-01-15 08:50:00,64.4,61.0,30.17,South,179,3.0,7.0,89,0.00,,,0.00,weatherlink.com 1.10,2013-01-15 13:50:00,
2013-01-15 09:05:00,65.1,62.0,30.17,South,178,5.0,13.0,88,0.00,,,0.00,weatherlink.com 1.10,2013-01-15 14:05:00,
2013-01-15 09:20:00,65.9,62.0,30.17,South,178,7.0,10.0,88,0.00,,,0.00,weatherlink.com 1.10,2013-01-15 14:20:00,
2013-01-15 09:35:00,66.8,63.0,30.17,South,186,5.0,14.0,87,0.00,,,0.00,weatherlink.com 1.10,2013-01-15 14:35:00,
2013-01-15 09:50:00,67.4,64.0,30.17,SSE,168,8.0,11.0,87,0.00,,,0.00,weatherlink.com 1.10,2013-01-15 14:50:00,
2013-01-15 10:05:00,68.0,64.0,30.17,South,182,5.0,15.0,86,0.00,,,0.00,weatherlink.com 1.10,2013-01-15 15:05:00,
2013-01-15 10:20:00,68.8,64.0,30.17,South,178,17.0,17.0,85,0.00,,,0.00,weatherlink.com 1.10,2013-01-15 15:20:00,
2013-01-15 10:35:00,69.7,64.0,30.16,South,190,8.0,16.0,83,0.00,,,0.00,weatherlink.com 1.10,2013-01-15 15:35:00,
2013-01-15 10:50:00,70.1,64.0,30.16,South,176,7.0,13.0,82,0.00,,,0.00,weatherlink.com 1.10,2013-01-15 15:50:00,
2013-01-15 11:05:00,70.5,65.0,30.15,South,175,12.0,16.0,82,0.00,,,0.00,weatherlink.com 1.10,2013-01-15 16:05:00,
2013-01-15 11:20:00,70.7,65.0,30.15,South,184,11.0,14.0,82,0.00,,,0.00,weatherlink.com 1.10,2013-01-15 16:20:00,
2013-01-15 11:35:00,70.4,65.0,30.14,South,190,8.0,17.0,82,0.00,,,0.00,weatherlink.com 1.10,2013-01-15 16:35:00,
2013-01-15 11:50:00,70.4,65.0,30.13,South,180,12.0,16.0,82,0.00,,,0.00,weatherlink.com 1.10,2013-01-15 16:50:00,
2013-01-15 12:05:00,71.0,65.0,30.12,South,182,7.0,15.0,82,0.00,,,0.00,weatherlink.com 1.10,2013-01-15 17:05:00,
2013-01-15 12:20:00,71.6,66.0,30.12,South,174,9.0,16.0,81,0.00,,,0.00,weatherlink.com 1.10,2013-01-15 17:20:00,
2013-01-15 12:35:00,71.1,65.0,30.11,South,183,7.0,18.0,82,0.00,,,0.00,weatherlink.com 1.10,2013-01-15 17:35:00,
2013-01-15 12:50:00,71.0,65.0,30.11,South,178,6.0,13.0,81,0.00,,,0.00,weatherlink.com 1.10,2013-01-15 17:50:00,
2013-01-15 13:05:00,70.8,65.0,30.10,South,175,6.0,15.0,81,0.00,,,0.00,weatherlink.com 1.10,2013-01-15 18:05:00,
2013-01-15 13:20:00,71.3,65.0,30.10,South,173,10.0,15.0,81,0.00,,,0.00,weatherlink.com 1.10,2013-01-15 18:20:00,
2013-01-15 13:35:00,71.3,65.0,30.10,South,177,12.0,14.0,81,0.00,,,0.00,weatherlink.com 1.10,2013-01-15 18:35:00,
2013-01-15 13:50:00,71.2,65.0,30.09,SSE,165,4.0,14.0,81,0.00,,,0.00,weatherlink.com 1.10,2013-01-15 18:50:00,
2013-01-15 14:05:00,72.0,66.0,30.09,South,179,6.0,13.0,80,0.00,,,0.00,weatherlink.com 1.10,2013-01-15 19:05:00,
2013-01-15 14:20:00,71.9,65.0,30.09,South,190,8.0,17.0,80,0.00,,,0.00,weatherlink.com 1.10,2013-01-15 19:20:00,
2013-01-15 14:35:00,71.4,65.0,30.09,South,178,10.0,13.0,81,0.00,,,0.00,weatherlink.com 1.10,2013-01-15 19:35:00,
2013-01-15 14:50:00,71.7,66.0,30.09,South,170,4.0,16.0,81,0.00,,,0.00,weatherlink.com 1.10,2013-01-15 19:50:00,
2013-01-15 15:05:00,71.6,65.0,30.09,South,178,15.0,18.0,80,0.00,,,0.00,weatherlink.com 1.10,2013-01-15 20:05:00,
2013-01-15 15:20:00,71.4,65.0,30.09,South,180,10.0,15.0,80,0.00,,,0.00,weatherlink.com 1.10,2013-01-15 20:20:00,
2013-01-15 15:35:00,70.7,65.0,30.09,South,173,10.0,16.0,82,0.00,,,0.00,weatherlink.com 1.10,2013-01-15 20:35:00,
2013-01-15 15:50:00,71.1,65.0,30.09,South,182,5.0,10.0,82,0.00,,,0.00,weatherlink.com 1.10,2013-01-15 20:50:00,
2013-01-15 16:05:00,70.7,65.0,30.09,South,174,4.0,9.0,83,0.00,,,0.00,weatherlink.com 1.10,2013-01-15 21:05:00,
2013-01-15 16:20:00,69.8,65.0,30.09,South,189,9.0,10.0,84,0.00,,,0.00,weatherlink.com 1.10,2013-01-15 21:20:00,
2013-01-15 16:35:00,69.4,65.0,30.09,South,180,4.0,8.0,85,0.00,,,0.00,weatherlink.com 1.10,2013-01-15 21:35:00,
2013-01-15 16:50:00,68.8,65.0,30.10,South,182,4.0,8.0,86,0.00,,,0.00,weatherlink.com 1.10,2013-01-15 21:50:00,
2013-01-15 17:05:00,68.3,64.0,30.10,South,178,4.0,8.0,87,0.00,,,0.00,weatherlink.com 1.10,2013-01-15 22:05:00,
2013-01-15 17:20:00,67.7,64.0,30.10,South,182,2.0,6.0,88,0.00,,,0.00,weatherlink.com 1.10,2013-01-15 22:20:00,
2013-01-15 17:35:00,66.9,64.0,30.10,South,182,5.0,7.0,89,0.00,,,0.00,weatherlink.com 1.10,2013-01-15 22:35:00,
2013-01-15 17:50:00,66.3,63.0,30.10,South,182,4.0,7.0,90,0.00,,,0.00,weatherlink.com 1.10,2013-01-15 22:50:00,
2013-01-15 18:05:00,65.8,63.0,30.10,South,182,1.0,6.0,90,0.00,,,0.00,weatherlink.com 1.10,2013-01-15 23:05:00,
2013-01-15 18:20:00,65.5,63.0,30.11,South,171,5.0,9.0,91,0.00,,,0.00,weatherlink.com 1.10,2013-01-15 23:20:00,
2013-01-15 18:35:00,65.3,63.0,30.11,South,177,3.0,8.0,91,0.00,,,0.00,weatherlink.com 1.10,2013-01-15 23:35:00,
2013-01-15 18:50:00,64.7,62.0,30.11,South,177,0.0,6.0,91,0.00,,,0.00,weatherlink.com 1.10,2013-01-15 23:50:00,
2013-01-15 19:05:00,64.6,62.0,30.11,South,175,0.0,5.0,92,0.00,,,0.00,weatherlink.com 1.10,2013-01-16 00:05:00,
2013-01-15 19:21:00,64.3,62.0,30.11,South,175,0.0,0.0,92,0.00,,,0.00,weatherlink.com 1.10,2013-01-16 00:21:00,
2013-01-15 19:36:00,64.1,62.0,30.11,South,175,0.0,0.0,92,0.00,,,0.00,weatherlink.com 1.10,2013-01-16 00:36:00,
2013-01-15 19:51:00,63.9,62.0,30.11,South,175,0.0,0.0,93,0.00,,,0.00,weatherlink.com 1.10,2013-01-16 00:51:00,
2013-01-15 20:06:00,63.7,62.0,30.11,South,175,0.0,0.0,93,0.00,,,0.00,weatherlink.com 1.10,2013-01-16 01:06:00,
2013-01-15 20:21:00,63.6,62.0,30.11,South,175,0.0,0.0,93,0.00,,,0.00,weatherlink.com 1.10,2013-01-16 01:21:00,
2013-01-15 20:36:00,63.8,62.0,30.10,South,175,0.0,6.0,93,0.00,,,0.00,weatherlink.com 1.10,2013-01-16 01:36:00,
2013-01-15 20:51:00,63.9,62.0,30.09,South,175,3.0,4.0,93,0.00,,,0.00,weatherlink.com 1.10,2013-01-16 01:51:00,
2013-01-15 21:06:00,63.6,62.0,30.09,South,173,2.0,5.0,93,0.00,,,0.00,weatherlink.com 1.10,2013-01-16 02:06:00,
2013-01-15 21:21:00,63.8,62.0,30.09,SSE,166,0.0,4.0,94,0.00,,,0.00,weatherlink.com 1.10,2013-01-16 02:21:00,
2013-01-15 21:36:00,63.9,62.0,30.09,SSE,155,0.0,3.0,94,0.00,,,0.00,weatherlink.com 1.10,2013-01-16 02:36:00,
2013-01-15 21:51:00,64.0,62.0,30.08,SE,146,0.0,3.0,94,0.00,,,0.00,weatherlink.com 1.10,2013-01-16 02:51:00,
2013-01-15 22:06:00,64.2,63.0,30.08,SSE,158,4.0,5.0,94,0.00,,,0.00,weatherlink.com 1.10,2013-01-16 03:06:00,
2013-01-15 22:21:00,64.3,63.0,30.08,SSE,155,2.0,6.0,95,0.00,,,0.00,weatherlink.com 1.10,2013-01-16 03:21:00,
2013-01-15 22:36:00,64.4,63.0,30.07,SSE,160,4.0,5.0,95,0.00,,,0.00,weatherlink.com 1.10,2013-01-16 03:36:00,
2013-01-15 22:51:00,64.3,63.0,30.06,SSE,167,5.0,6.0,95,0.00,,,0.00,weatherlink.com 1.10,2013-01-16 03:51:00,
2013-01-15 23:06:00,64.7,63.0,30.06,SSE,157,2.0,8.0,95,0.00,,,0.00,weatherlink.com 1.10,2013-01-16 04:06:00,
2013-01-15 23:21:00,65.1,64.0,30.05,SSE,167,3.0,6.0,95,0.00,,,0.00,weatherlink.com 1.10,2013-01-16 04:21:00,
2013-01-15 23:36:00,65.4,64.0,30.05,South,176,6.0,9.0,95,0.00,,,0.00,weatherlink.com 1.10,2013-01-16 04:36:00,
2013-01-15 23:51:00,65.4,64.0,30.05,South,170,7.0,12.0,94,0.00,,,0.00,weatherlink.com 1.10,2013-01-16 04:51:00,